TimeCST,TemperatureF,Dew PointF,Humidity,Sea Level PressureIn,VisibilityMPH,Wind Direction,Wind SpeedMPH,Gust SpeedMPH,PrecipitationIn,Events,Conditions,WindDirDegrees,DateUTC
12:54 AM,14.0,7.0,74,30.47,10.0,Calm,Calm,-,N/A,,Clear,0,2013-01-14 06:54:00
1:54 AM,14.0,8.1,77,30.46,10.0,Calm,Calm,-,N/A,,Clear,0,2013-01-14 07:54:00
2:54 AM,12.9,7.0,77,30.46,10.0,Calm,Calm,-,N/A,,Clear,0,2013-01-14 08:54:00
4:54 AM,16.0,9.0,74,30.44,10.0,NNE,4.6,-,N/A,,Clear,30,2013-01-14 10:54:00
5:54 AM,12.9,7.0,77,30.47,10.0,North,3.5,-,N/A,,Clear,360,2013-01-14 11:54:00
6:54 AM,12.9,8.1,81,30.49,10.0,NW,4.6,-,N/A,,Clear,320,2013-01-14 12:54:00
7:54 AM,12.9,9.0,84,30.52,10.0,Calm,Calm,-,N/A,,Clear,0,2013-01-14 13:54:00
8:54 AM,18.0,10.9,74,30.53,10.0,North,6.9,-,N/A,,Clear,10,2013-01-14 14:54:00
9:54 AM,21.0,10.9,65,30.52,10.0,NNE,8.1,-,N/A,,Clear,20,2013-01-14 15:54:00
10:54 AM,27.0,10.9,51,30.48,6.0,NNE,9.2,-,N/A,,Haze,20,2013-01-14 16:54:00
11:54 AM,28.9,9.0,43,30.45,9.0,NNE,9.2,-,N/A,,Clear,20,2013-01-14 17:54:00
1:54 PM,33.1,9.0,37,30.41,10.0,East,3.5,-,N/A,,Clear,90,2013-01-14 19:54:00
2:54 PM,33.1,7.0,34,30.40,10.0,ENE,10.4,-,N/A,,Clear,70,2013-01-14 20:54:00
4:54 PM,32.0,8.1,37,30.39,10.0,East,9.2,-,N/A,,Clear,90,2013-01-14 22:54:00
5:54 PM,28.9,9.0,43,30.40,10.0,East,3.5,-,N/A,,Clear,90,2013-01-14 23:54:00
6:54 PM,27.0,9.0,47,30.41,10.0,East,3.5,-,N/A,,Clear,80,2013-01-15 00:54:00
7:54 PM,25.0,10.0,53,30.42,10.0,East,3.5,-,N/A,,Clear,90,2013-01-15 01:54:00
8:54 PM,24.1,10.0,55,30.41,10.0,East,4.6,-,N/A,,Overcast,90,2013-01-15 02:54:00
9:54 PM,21.9,10.9,63,30.40,10.0,ENE,3.5,-,N/A,,Clear,70,2013-01-15 03:54:00
10:54 PM,21.0,12.0,68,30.40,10.0,ENE,4.6,-,N/A,,Clear,60,2013-01-15 04:54:00
11:54 PM,21.0,12.0,68,30.41,10.0,ENE,4.6,-,N/A,,Overcast,60,2013-01-15 05:54:00